When you browse on this site, cookies collect data to enhance your experience and personalize the content and advertising you see.
Visit our Privacy Policy to learn more. By continuing to use the site, you agree to this use of cookies and data.
  • en Suisse
  • Liste des pays
  • À 7 jours
  • Température de l'eau
  • Carte météo
  • Widgets météo
  • user-avatar
    Se connecter

    Météo par heure à Carmarthen

    Ce jour, 4 Avril, Samedi

    Heure Température Précipitation Vent Pression Humidité
    00:00 +3°C° 0 mm 4 m/s 758 mmHg 93%
    01:00 +3°C° 0 mm 4 m/s 758 mmHg 93%
    02:00 +3°C° 0 mm 4 m/s 758 mmHg 93%
    03:00 +3°C° 0 mm 4 m/s 758 mmHg 93%
    04:00 +3°C° 0 mm 3 m/s 758 mmHg 93%
    05:00 +3°C° 0 mm 3 m/s 758 mmHg 92%
    06:00 +4°C° 0 mm 3 m/s 758 mmHg 94%
    07:00 +5°C° 0 mm 3 m/s 758 mmHg 90%
    08:00 +6°C° 0 mm 4 m/s 758 mmHg 87%
    09:00 +7°C° 0 mm 4 m/s 758 mmHg 83%
    10:00 +7°C° 0 mm 5 m/s 758 mmHg 80%
    11:00 +8°C° 0 mm 5 m/s 758 mmHg 77%
    12:00 +8°C° 0 mm 6 m/s 757 mmHg 74%
    13:00 +8°C° 0 mm 7 m/s 757 mmHg 74%
    14:00 +9°C° 0 mm 7 m/s 757 mmHg 75%
    15:00 +9°C° 0 mm 8 m/s 757 mmHg 75%
    16:00 +7°C° 0 mm 8 m/s 756 mmHg 78%
    17:00 +7°C° 0 mm 8 m/s 756 mmHg 81%
    18:00 +7°C° 0 mm 8 m/s 755 mmHg 83%
    19:00 +6°C° 0 mm 8 m/s 755 mmHg 86%
    20:00 +6°C° 0 mm 8 m/s 755 mmHg 89%
    21:00 +5°C° 0 mm 8 m/s 755 mmHg 92%
    22:00 +5°C° 0 mm 8 m/s 755 mmHg 92%
    23:00 +5°C° 0 mm 9 m/s 755 mmHg 91%

    Demain, 5 Avril, Dimanche

    Heure Température Précipitation Vent Pression Humidité
    00:00 +5°C° 0 mm 9 m/s 755 mmHg 91%
    01:00 +5°C° 0 mm 9 m/s 755 mmHg 91%
    02:00 +5°C° 0 mm 9 m/s 754 mmHg 91%
    03:00 +5°C° 0 mm 9 m/s 753 mmHg 91%
    04:00 +5°C° 0 mm 9 m/s 753 mmHg 90%
    05:00 +6°C° 0 mm 9 m/s 752 mmHg 90%
    06:00 +6°C° 0 mm 9 m/s 752 mmHg 90%
    07:00 +7°C° 0 mm 10 m/s 751 mmHg 87%
    08:00 +7°C° 0 mm 10 m/s 751 mmHg 84%
    09:00 +8°C° 0 mm 10 m/s 750 mmHg 82%
    10:00 +9°C° 0 mm 10 m/s 749 mmHg 80%
    11:00 +9°C° 0 mm 11 m/s 749 mmHg 78%
    12:00 +11°C° 0 mm 11 m/s 748 mmHg 76%
    13:00 +11°C° 0 mm 11 m/s 747 mmHg 76%
    14:00 +12°C° 0 mm 12 m/s 747 mmHg 77%
    15:00 +12°C° 0 mm 12 m/s 746 mmHg 77%
    16:00 +10°C° 0.2 mm 12 m/s 745 mmHg 82%
    17:00 +10°C° 0.2 mm 12 m/s 745 mmHg 87%
    18:00 +9°C° 0.2 mm 12 m/s 744 mmHg 91%
    19:00 +9°C° 0.5 mm 13 m/s 744 mmHg 92%
    20:00 +9°C° 0.5 mm 13 m/s 744 mmHg 93%
    21:00 +9°C° 0.5 mm 13 m/s 744 mmHg 94%
    22:00 +8°C° 0.2 mm 12 m/s 744 mmHg 93%
    23:00 +7°C° 0.2 mm 10 m/s 744 mmHg 91%

    Après-demain, 6 Avril, Lundi

    Heure Température Précipitation Vent Pression Humidité
    00:00 +7°C° 0.2 mm 9 m/s 744 mmHg 89%
    01:00 +6°C° 0 mm 9 m/s 745 mmHg 90%
    02:00 +6°C° 0 mm 8 m/s 746 mmHg 91%
    03:00 +5°C° 0 mm 8 m/s 747 mmHg 92%
    04:00 +5°C° 0 mm 7 m/s 748 mmHg 92%
    05:00 +4°C° 0 mm 7 m/s 749 mmHg 91%
    06:00 +4°C° 0 mm 7 m/s 749 mmHg 90%
    07:00 +4°C° 0 mm 7 m/s 751 mmHg 87%
    08:00 +5°C° 0 mm 7 m/s 752 mmHg 83%
    09:00 +6°C° 0 mm 7 m/s 753 mmHg 80%
    10:00 +8°C° 0.1 mm 7 m/s 754 mmHg 74%
    11:00 +9°C° 0.1 mm 7 m/s 755 mmHg 69%
    12:00 +10°C° 0.1 mm 6 m/s 757 mmHg 63%
    13:00 +10°C° 0.1 mm 6 m/s 758 mmHg 63%
    14:00 +10°C° 0.1 mm 5 m/s 759 mmHg 63%
    15:00 +10°C° 0.1 mm 5 m/s 760 mmHg 63%
    16:00 +10°C° 0 mm 4 m/s 761 mmHg 67%
    17:00 +10°C° 0 mm 3 m/s 761 mmHg 70%
    18:00 +9°C° 0 mm 2 m/s 762 mmHg 74%
    19:00 +7°C° 0 mm 2 m/s 763 mmHg 77%
    20:00 +6°C° 0 mm 2 m/s 764 mmHg 80%
    21:00 +5°C° 0 mm 1 m/s 765 mmHg 82%
    22:00 +4°C° 0 mm 2 m/s 765 mmHg 83%
    23:00 +4°C° 0 mm 2 m/s 765 mmHg 85%

    7 Avril, Mardi

    Heure Température Précipitation Vent Pression Humidité
    00:00 +2°C° 0 mm 3 m/s 766 mmHg 86%
    01:00 +2°C° 0 mm 3 m/s 766 mmHg 85%
    02:00 +2°C° 0 mm 3 m/s 766 mmHg 84%
    03:00 +2°C° 0 mm 3 m/s 766 mmHg 84%
    04:00 +2°C° 0 mm 3 m/s 766 mmHg 84%
    05:00 +1°C° 0 mm 4 m/s 767 mmHg 85%
    06:00 +1°C° 0 mm 4 m/s 767 mmHg 86%
    07:00 +3°C° 0 mm 5 m/s 767 mmHg 81%
    08:00 +5°C° 0 mm 6 m/s 767 mmHg 76%
    09:00 +8°C° 0 mm 6 m/s 767 mmHg 71%
    10:00 +9°C° 0 mm 7 m/s 767 mmHg 70%
    11:00 +10°C° 0 mm 8 m/s 767 mmHg 68%
    12:00 +10°C° 0 mm 8 m/s 766 mmHg 67%
    13:00 +11°C° 0 mm 9 m/s 766 mmHg 68%
    14:00 +11°C° 0 mm 9 m/s 766 mmHg 69%
    15:00 +11°C° 0 mm 9 m/s 766 mmHg 69%
    16:00 +11°C° 0 mm 9 m/s 766 mmHg 71%
    17:00 +10°C° 0 mm 8 m/s 766 mmHg 73%
    18:00 +10°C° 0 mm 8 m/s 766 mmHg 75%
    19:00 +9°C° 0 mm 7 m/s 766 mmHg 77%
    20:00 +8°C° 0 mm 7 m/s 767 mmHg 79%
    21:00 +7°C° 0 mm 6 m/s 767 mmHg 81%
    22:00 +5°C° 0 mm 6 m/s 767 mmHg 85%
    23:00 +5°C° 0 mm 6 m/s 767 mmHg 89%

    8 Avril, Mercredi

    Heure Température Précipitation Vent Pression Humidité
    00:00 +5°C° 0 mm 5 m/s 768 mmHg 93%
    01:00 +3°C° 0 mm 5 m/s 768 mmHg 93%
    02:00 +3°C° 0 mm 5 m/s 768 mmHg 94%
    03:00 +4°C° 0 mm 4 m/s 768 mmHg 95%
    04:00 +4°C° 0 mm 4 m/s 768 mmHg 95%
    05:00 +3°C° 0 mm 4 m/s 768 mmHg 95%
    06:00 +3°C° 0 mm 3 m/s 768 mmHg 95%
    07:00 +5°C° 0 mm 3 m/s 768 mmHg 90%
    08:00 +8°C° 0 mm 3 m/s 768 mmHg 85%
    09:00 +9°C° 0 mm 2 m/s 769 mmHg 80%
    10:00 +10°C° 0 mm 3 m/s 769 mmHg 76%
    11:00 +11°C° 0 mm 3 m/s 769 mmHg 71%
    12:00 +12°C° 0 mm 3 m/s 769 mmHg 67%
    13:00 +12°C° 0 mm 3 m/s 769 mmHg 68%
    14:00 +12°C° 0 mm 3 m/s 769 mmHg 70%
    15:00 +12°C° 0 mm 3 m/s 769 mmHg 71%
    16:00 +11°C° 0 mm 3 m/s 769 mmHg 76%
    17:00 +11°C° 0 mm 3 m/s 768 mmHg 80%
    18:00 +10°C° 0 mm 3 m/s 768 mmHg 85%
    19:00 +9°C° 0 mm 3 m/s 768 mmHg 87%
    20:00 +7°C° 0 mm 3 m/s 768 mmHg 90%
    21:00 +5°C° 0 mm 3 m/s 769 mmHg 93%
    22:00 +5°C° 0 mm 3 m/s 769 mmHg 93%
    23:00 +5°C° 0 mm 4 m/s 768 mmHg 92%

    9 Avril, Jeudi

    Heure Température Précipitation Vent Pression Humidité
    00:00 +5°C° 0 mm 4 m/s 768 mmHg 91%
    01:00 +6°C° 0 mm 5 m/s 768 mmHg 91%
    02:00 +6°C° 0 mm 5 m/s 768 mmHg 90%
    03:00 +5°C° 0 mm 6 m/s 767 mmHg 90%
    04:00 +5°C° 0 mm 6 m/s 767 mmHg 89%
    05:00 +6°C° 0 mm 7 m/s 767 mmHg 88%
    06:00 +6°C° 0 mm 7 m/s 767 mmHg 87%
    07:00 +6°C° 0 mm 8 m/s 767 mmHg 85%
    08:00 +7°C° 0 mm 8 m/s 766 mmHg 83%
    09:00 +9°C° 0 mm 8 m/s 766 mmHg 82%
    10:00 +9°C° 0 mm 8 m/s 766 mmHg 81%
    11:00 +10°C° 0 mm 8 m/s 766 mmHg 80%
    12:00 +11°C° 0 mm 8 m/s 765 mmHg 79%
    13:00 +11°C° 0 mm 8 m/s 765 mmHg 79%
    14:00 +11°C° 0 mm 8 m/s 765 mmHg 79%
    15:00 +12°C° 0 mm 7 m/s 764 mmHg 79%
    16:00 +11°C° 0 mm 7 m/s 764 mmHg 81%
    17:00 +11°C° 0 mm 7 m/s 763 mmHg 83%
    18:00 +11°C° 0 mm 6 m/s 763 mmHg 85%
    19:00 +10°C° 0 mm 6 m/s 763 mmHg 87%
    20:00 +10°C° 0 mm 6 m/s 763 mmHg 89%
    21:00 +9°C° 0 mm 6 m/s 763 mmHg 92%
    22:00 +9°C° 0 mm 6 m/s 763 mmHg 89%
    23:00 +10°C° 0 mm 6 m/s 763 mmHg 87%
    Voir plus